This is the latest recevied weather packets stored in our database for station/object N5ATR. If no packets are shown the sender has not sent any weather packets the latest 10 day(s).
| Time | Temp. | Humidity | Pressure | Rain* | Wind** | Luminosity | Snow |
|---|---|---|---|---|---|---|---|
| 1787887407 | 20° C | 56% | 1027.4 hPa | 0 mm | - | 0 W/m² | - |
| 1787887107 | 20° C | 56% | 1027.8 hPa | 0 mm | - | 0 W/m² | - |
| 1787886803 | 20° C | 53% | 1027.7 hPa | 0 mm | - | 0 W/m² | - |
| 1787886502 | 18.89° C | 53% | 1028.2 hPa | 0 mm | - | 0 W/m² | - |
| 1787886197 | 18.33° C | 67% | 1028.1 hPa | 0 mm | - | 0 W/m² | - |
| 1787885897 | 18.89° C | 66% | 1028.2 hPa | 0 mm | - | 0 W/m² | - |
| 1787885596 | 18.89° C | 65% | 1027.6 hPa | 0 mm | - | 0 W/m² | - |
| 1787885295 | 19.44° C | 61% | 1027.6 hPa | 0 mm | - | 0 W/m² | - |
| 1787884989 | 19.44° C | 63% | 1027.8 hPa | 0 mm | - | 0 W/m² | - |
| 1787884685 | 21.67° C | 60% | 1027.7 hPa | 0 mm | - | 0 W/m² | - |
| 1787884380 | 22.22° C | 47% | 1027.8 hPa | 0 mm | - | 0 W/m² | - |
| 1787884075 | 22.22° C | 44% | 1027.8 hPa | 0 mm | - | 0 W/m² | - |
| 1787883770 | 22.78° C | 44% | 1027.9 hPa | 0 mm | - | 0 W/m² | - |
| 1787883466 | 22.22° C | 45% | 1027.8 hPa | 0 mm | - | 0 W/m² | - |
| 1787883165 | 22.22° C | 44% | 1027.6 hPa | 0 mm | - | 0 W/m² | - |
| 1787882860 | 22.22° C | 45% | 1027.4 hPa | 0 mm | - | 0 W/m² | - |
| 1787882557 | 22.22° C | 44% | 1027.2 hPa | 0 mm | - | 0 W/m² | - |
| 1787882253 | 22.22° C | 44% | 1026.6 hPa | 0 mm | - | 0 W/m² | - |
| 1787881953 | 22.22° C | 43% | 1026.3 hPa | 0 mm | - | 0 W/m² | - |
| 1787881653 | 22.22° C | 43% | 1026 hPa | 0 mm | - | 0 W/m² | - |
| 1787881349 | 22.22° C | 43% | 1025.7 hPa | 0 mm | - | 1 W/m² | - |
| 1787881044 | 22.78° C | 43% | 1026 hPa | 0 mm | - | 2 W/m² | - |
| 1787880739 | 22.78° C | 43% | 1025.7 hPa | 0 mm | - | 3 W/m² | - |
| 1787880438 | 22.78° C | 44% | 1025.6 hPa | 0 mm | - | 4 W/m² | - |
| 1787880133 | 22.78° C | 44% | 1025.2 hPa | 0 mm | - | 4 W/m² | - |
* Rain latest hour (hover to see other rain measurements)
** Current wind speed in m/s (hover to see current wind gust speed)